Location: Innsbruck
(47.2657°N, 11.3914°E)
Time: 14:32:36
(UTC+02:00)

Envisat - Pass Details

Date: 24 September 2021
Orbit: 764 x 766 km, 98.2° (Epoch: 20 October)

Event Time Altitude Azimuth Distance (km) Brightness Sun altitude
Rises 04:54:45 0° 32° (NNE) 3,242 7.2 -22.1°
Reaches altitude 10° 04:58:40 10° 63° (ENE) 2,308 6.7 -21.5°
Maximum altitude 05:00:39 12° 86° (E) 2,155 6.3 -21.2°
Drops below altitude 10° 05:02:37 10° 109° (ESE) 2,301 6.1 -20.8°
Sets 05:06:29 0° 140° (SE) 3,219 6.5 -20.2°
